Year,Month,Day,Hour,Minute,Value (Times are PST for windspeed in km/hr)
2009,06,05,00,00,1.50
2009,06,05,00,01,1.00
2009,06,05,00,02,0.30
2009,06,05,00,03,0.20
2009,06,05,00,04,0.20
2009,06,05,00,05,0.40
2009,06,05,00,06,0.10
2009,06,05,00,07,1.30
2009,06,05,00,08,0.00
2009,06,05,00,09,0.00
2009,06,05,00,10,0.30
2009,06,05,00,11,1.20
2009,06,05,00,12,1.90
2009,06,05,00,13,0.40
2009,06,05,00,14,0.00
2009,06,05,00,15,0.10
2009,06,05,00,16,0.70
2009,06,05,00,17,1.70
2009,06,05,00,18,0.00
2009,06,05,00,19,1.00
2009,06,05,00,20,0.00
2009,06,05,00,21,0.10
2009,06,05,00,22,3.50
2009,06,05,00,23,1.70
2009,06,05,00,24,0.00
2009,06,05,00,25,2.20
2009,06,05,00,26,0.60
2009,06,05,00,27,0.10
2009,06,05,00,28,2.70
2009,06,05,00,29,1.50
2009,06,05,00,30,7.00
2009,06,05,00,31,6.20
2009,06,05,00,32,3.20
2009,06,05,00,33,3.00
2009,06,05,00,34,2.80
2009,06,05,00,35,4.80
2009,06,05,00,36,4.20
2009,06,05,00,37,5.10
2009,06,05,00,38,9.30
2009,06,05,00,39,11.50
2009,06,05,00,40,7.50
2009,06,05,00,41,11.80
2009,06,05,00,42,3.70
2009,06,05,00,43,3.30
2009,06,05,00,44,1.00
2009,06,05,00,45,0.60
2009,06,05,00,46,1.00
2009,06,05,00,47,0.40
2009,06,05,00,48,0.80
2009,06,05,00,49,2.30
2009,06,05,00,50,3.20
2009,06,05,00,51,5.80
2009,06,05,00,52,3.50
2009,06,05,00,53,0.10
2009,06,05,00,54,2.70
2009,06,05,00,55,6.60
2009,06,05,00,56,5.00
2009,06,05,00,57,1.20
2009,06,05,00,58,0.90
2009,06,05,00,59,4.60
2009,06,05,01,00,7.40
2009,06,05,01,01,0.00
2009,06,05,01,02,1.00
2009,06,05,01,03,4.20
2009,06,05,01,04,0.00
2009,06,05,01,05,1.80
2009,06,05,01,06,2.30
2009,06,05,01,07,1.60
2009,06,05,01,08,0.00
2009,06,05,01,09,0.80
2009,06,05,01,10,4.80
2009,06,05,01,11,6.60
2009,06,05,01,12,5.50
2009,06,05,01,13,1.60
2009,06,05,01,14,1.20
2009,06,05,01,15,5.20
2009,06,05,01,16,3.60
2009,06,05,01,17,2.10
2009,06,05,01,18,7.30
2009,06,05,01,19,2.70
2009,06,05,01,20,1.70
2009,06,05,01,21,0.80
2009,06,05,01,22,4.10
2009,06,05,01,23,2.80
2009,06,05,01,24,2.20
2009,06,05,01,25,1.70
2009,06,05,01,26,10.10
2009,06,05,01,27,4.50
2009,06,05,01,28,7.60
2009,06,05,01,29,2.90
2009,06,05,01,30,5.30
2009,06,05,01,31,0.10
2009,06,05,01,32,0.00
2009,06,05,01,33,0.10
2009,06,05,01,34,4.00
2009,06,05,01,35,4.90
2009,06,05,01,36,4.80
2009,06,05,01,37,3.70
2009,06,05,01,38,1.00
2009,06,05,01,39,9.20
2009,06,05,01,40,1.80
2009,06,05,01,41,6.40
2009,06,05,01,42,6.40
2009,06,05,01,43,5.40
2009,06,05,01,44,11.40
2009,06,05,01,45,10.80
2009,06,05,01,46,1.60
2009,06,05,01,47,4.40
2009,06,05,01,48,10.10
2009,06,05,01,49,15.00
2009,06,05,01,50,14.50
2009,06,05,01,51,5.70
2009,06,05,01,52,8.60
2009,06,05,01,53,14.00
2009,06,05,01,54,9.50
2009,06,05,01,55,11.80
2009,06,05,01,56,6.10
2009,06,05,01,57,5.20
2009,06,05,01,58,10.60
2009,06,05,01,59,13.60
2009,06,05,02,00,8.50
2009,06,05,02,01,13.60
2009,06,05,02,02,15.60
2009,06,05,02,03,5.90
2009,06,05,02,04,6.20
2009,06,05,02,05,13.40
2009,06,05,02,06,6.90
2009,06,05,02,07,3.20
2009,06,05,02,08,6.40
2009,06,05,02,09,13.50
2009,06,05,02,10,11.20
2009,06,05,02,11,8.90
2009,06,05,02,12,3.40
2009,06,05,02,13,13.40
2009,06,05,02,14,8.20
2009,06,05,02,15,2.40
2009,06,05,02,16,9.50
2009,06,05,02,17,9.20
2009,06,05,02,18,9.50
2009,06,05,02,19,8.50
2009,06,05,02,20,11.10
2009,06,05,02,21,15.30
2009,06,05,02,22,11.90
2009,06,05,02,23,12.30
2009,06,05,02,24,12.00
2009,06,05,02,25,7.20
2009,06,05,02,26,13.20
2009,06,05,02,27,18.70
2009,06,05,02,28,25.90
2009,06,05,02,29,22.80
2009,06,05,02,30,15.30
2009,06,05,02,31,20.60
2009,06,05,02,32,20.90
2009,06,05,02,33,21.20
2009,06,05,02,34,19.10
2009,06,05,02,35,16.70
2009,06,05,02,36,19.80
2009,06,05,02,37,19.50
2009,06,05,02,38,27.10
2009,06,05,02,39,23.20
2009,06,05,02,40,15.10
2009,06,05,02,41,16.50
2009,06,05,02,42,20.70
2009,06,05,02,43,21.70
2009,06,05,02,44,11.50
2009,06,05,02,45,20.50
2009,06,05,02,46,16.50
2009,06,05,02,47,18.00
2009,06,05,02,48,15.20
2009,06,05,02,49,25.40
2009,06,05,02,50,18.90
2009,06,05,02,51,23.50
2009,06,05,02,52,12.60
2009,06,05,02,53,20.90
2009,06,05,02,54,16.60
2009,06,05,02,55,10.10
2009,06,05,02,56,16.20
2009,06,05,02,57,21.20
2009,06,05,02,58,18.30
2009,06,05,02,59,10.40
2009,06,05,03,00,13.50
2009,06,05,03,01,13.80
2009,06,05,03,02,13.60
2009,06,05,03,03,19.90
2009,06,05,03,04,17.10
2009,06,05,03,05,16.90
2009,06,05,03,06,15.90
2009,06,05,03,07,17.10
2009,06,05,03,08,16.50
2009,06,05,03,09,16.40
2009,06,05,03,10,16.30
2009,06,05,03,11,18.60
2009,06,05,03,12,16.70
2009,06,05,03,13,15.80
2009,06,05,03,14,21.40
2009,06,05,03,15,22.60
2009,06,05,03,16,19.50
2009,06,05,03,17,18.00
2009,06,05,03,18,22.10
2009,06,05,03,19,18.00
2009,06,05,03,20,20.90
2009,06,05,03,21,13.90
2009,06,05,03,22,21.90
2009,06,05,03,23,19.10
2009,06,05,03,24,20.20
2009,06,05,03,25,16.80
2009,06,05,03,26,25.20
2009,06,05,03,27,20.30
2009,06,05,03,28,19.80
2009,06,05,03,29,19.80
2009,06,05,03,30,25.10
2009,06,05,03,31,21.80
2009,06,05,03,32,19.90
2009,06,05,03,33,18.40
2009,06,05,03,34,15.90
2009,06,05,03,35,17.50
2009,06,05,03,36,18.70
2009,06,05,03,37,16.00
2009,06,05,03,38,20.20
2009,06,05,03,39,16.30
2009,06,05,03,40,18.60
2009,06,05,03,41,19.30
2009,06,05,03,42,16.00
2009,06,05,03,43,25.50
2009,06,05,03,44,17.80
2009,06,05,03,45,14.90
2009,06,05,03,46,11.10
2009,06,05,03,47,16.80
2009,06,05,03,48,17.70
2009,06,05,03,49,21.80
2009,06,05,03,50,11.60
2009,06,05,03,51,16.20
2009,06,05,03,52,20.60
2009,06,05,03,53,11.70
2009,06,05,03,54,13.80
2009,06,05,03,55,10.80
2009,06,05,03,56,18.70
2009,06,05,03,57,9.40
2009,06,05,03,58,9.20
2009,06,05,03,59,7.20
2009,06,05,04,00,9.70
2009,06,05,04,01,11.90
2009,06,05,04,02,9.40
2009,06,05,04,03,10.20
2009,06,05,04,04,10.10
2009,06,05,04,05,6.40
2009,06,05,04,06,8.40
2009,06,05,04,07,4.90
2009,06,05,04,08,9.60
2009,06,05,04,09,8.20
2009,06,05,04,10,15.10
2009,06,05,04,11,14.90
2009,06,05,04,12,6.00
2009,06,05,04,13,15.80
2009,06,05,04,14,7.40
2009,06,05,04,15,10.40
2009,06,05,04,16,13.60
2009,06,05,04,17,12.70
2009,06,05,04,18,7.60
2009,06,05,04,19,9.30
2009,06,05,04,20,12.40
2009,06,05,04,21,6.90
2009,06,05,04,22,4.90
2009,06,05,04,23,2.50
2009,06,05,04,24,2.30
2009,06,05,04,25,3.90
2009,06,05,04,26,3.40
2009,06,05,04,27,8.10
2009,06,05,04,28,5.90
2009,06,05,04,29,3.10
2009,06,05,04,30,4.30
2009,06,05,04,31,3.80
2009,06,05,04,32,2.90
2009,06,05,04,33,0.00
2009,06,05,04,34,3.00
2009,06,05,04,35,5.20
2009,06,05,04,36,9.60
2009,06,05,04,37,6.70
2009,06,05,04,38,7.60
2009,06,05,04,39,6.40
2009,06,05,04,40,1.30
2009,06,05,04,41,4.30
2009,06,05,04,42,7.20
2009,06,05,04,43,8.60
2009,06,05,04,44,1.20
2009,06,05,04,45,7.10
2009,06,05,04,46,12.10
2009,06,05,04,47,3.50
2009,06,05,04,48,5.80
2009,06,05,04,49,5.50
2009,06,05,04,50,3.50
2009,06,05,04,51,5.60
2009,06,05,04,52,8.00
2009,06,05,04,53,10.30
2009,06,05,04,54,16.90
2009,06,05,04,55,10.00
2009,06,05,04,56,6.30
2009,06,05,04,57,12.40
2009,06,05,04,58,7.20
2009,06,05,04,59,13.80
2009,06,05,05,00,15.00
2009,06,05,05,01,18.20
2009,06,05,05,02,8.00
2009,06,05,05,03,4.50
2009,06,05,05,04,19.00
2009,06,05,05,05,12.80
2009,06,05,05,06,13.90
2009,06,05,05,07,12.60
2009,06,05,05,08,14.60
2009,06,05,05,09,19.10
2009,06,05,05,10,24.00
2009,06,05,05,11,17.50
2009,06,05,05,12,18.50
2009,06,05,05,13,18.10
2009,06,05,05,14,15.60
2009,06,05,05,15,13.30
2009,06,05,05,16,24.20
2009,06,05,05,17,16.00
2009,06,05,05,18,7.60
2009,06,05,05,19,18.40
2009,06,05,05,20,15.90
2009,06,05,05,21,13.80
2009,06,05,05,22,9.80
2009,06,05,05,23,10.50
2009,06,05,05,24,8.10
2009,06,05,05,25,13.60
2009,06,05,05,26,11.00
2009,06,05,05,27,13.30
2009,06,05,05,28,6.20
2009,06,05,05,29,5.80
2009,06,05,05,30,6.90
2009,06,05,05,31,6.60
2009,06,05,05,32,8.00
2009,06,05,05,33,7.10
2009,06,05,05,34,3.20
2009,06,05,05,35,8.70
2009,06,05,05,36,5.20
2009,06,05,05,37,17.20
2009,06,05,05,38,4.20
2009,06,05,05,39,4.00
2009,06,05,05,40,6.20
2009,06,05,05,41,4.40
2009,06,05,05,42,2.90
2009,06,05,05,43,3.20
2009,06,05,05,44,2.80
2009,06,05,05,45,3.30
2009,06,05,05,46,4.70
2009,06,05,05,47,3.10
2009,06,05,05,48,4.70
2009,06,05,05,49,10.90
2009,06,05,05,50,8.60
2009,06,05,05,51,4.80
2009,06,05,05,52,4.00
2009,06,05,05,53,0.90
2009,06,05,05,54,12.80
2009,06,05,05,55,8.00
2009,06,05,05,56,6.00
2009,06,05,05,57,7.10
2009,06,05,05,58,4.00
2009,06,05,05,59,4.30
2009,06,05,06,00,6.60
2009,06,05,06,01,3.50
2009,06,05,06,02,0.80
2009,06,05,06,03,6.70
2009,06,05,06,04,9.50
2009,06,05,06,05,7.20
2009,06,05,06,06,8.40
2009,06,05,06,07,6.10
2009,06,05,06,08,7.80
2009,06,05,06,09,5.00
2009,06,05,06,10,8.10
2009,06,05,06,11,9.50
2009,06,05,06,12,11.50
2009,06,05,06,13,12.00
2009,06,05,06,14,8.30
2009,06,05,06,15,9.00
2009,06,05,06,16,9.20
2009,06,05,06,17,9.20
2009,06,05,06,18,4.60
2009,06,05,06,19,6.60
2009,06,05,06,20,5.20
2009,06,05,06,21,6.20
2009,06,05,06,22,8.20
2009,06,05,06,23,10.70
2009,06,05,06,24,5.70
2009,06,05,06,25,5.90
2009,06,05,06,26,8.20
2009,06,05,06,27,3.80
2009,06,05,06,28,8.00
2009,06,05,06,29,13.50
2009,06,05,06,30,7.90
2009,06,05,06,31,5.20
2009,06,05,06,32,9.80
2009,06,05,06,33,7.40
2009,06,05,06,34,13.90
2009,06,05,06,35,6.70
2009,06,05,06,36,8.60
2009,06,05,06,37,7.80
2009,06,05,06,38,15.90
2009,06,05,06,39,14.30
2009,06,05,06,40,15.10
2009,06,05,06,41,5.90
2009,06,05,06,42,5.50
2009,06,05,06,43,6.10
2009,06,05,06,44,13.90
2009,06,05,06,45,8.10
2009,06,05,06,46,11.00
2009,06,05,06,47,6.20
2009,06,05,06,48,6.00
2009,06,05,06,49,8.90
2009,06,05,06,50,8.50
2009,06,05,06,51,8.20
2009,06,05,06,52,6.10
2009,06,05,06,53,4.50
2009,06,05,06,54,4.00
2009,06,05,06,55,5.10
2009,06,05,06,56,10.70
2009,06,05,06,57,9.50
2009,06,05,06,58,7.50
2009,06,05,06,59,6.70
2009,06,05,07,00,2.80
2009,06,05,07,01,7.60
2009,06,05,07,02,4.80
2009,06,05,07,03,3.50
2009,06,05,07,04,10.00
2009,06,05,07,05,3.60
2009,06,05,07,06,5.60
2009,06,05,07,07,6.80
2009,06,05,07,08,4.40
2009,06,05,07,09,4.60
2009,06,05,07,10,5.60
2009,06,05,07,11,8.40
2009,06,05,07,12,6.30
2009,06,05,07,13,8.00
2009,06,05,07,14,11.00
2009,06,05,07,15,9.70
2009,06,05,07,16,10.10
2009,06,05,07,17,7.30
2009,06,05,07,18,2.60
2009,06,05,07,19,2.50
2009,06,05,07,20,10.00
2009,06,05,07,21,13.30
2009,06,05,07,22,12.60
2009,06,05,07,23,7.00
2009,06,05,07,24,6.80
2009,06,05,07,25,9.90
2009,06,05,07,26,8.80
2009,06,05,07,27,9.70
2009,06,05,07,28,15.10
2009,06,05,07,29,10.80
2009,06,05,07,30,11.10
2009,06,05,07,31,9.20
2009,06,05,07,32,20.10
2009,06,05,07,33,14.80
2009,06,05,07,34,5.00
2009,06,05,07,35,6.60
2009,06,05,07,36,13.50
2009,06,05,07,37,10.50
2009,06,05,07,38,12.50
2009,06,05,07,39,11.60
2009,06,05,07,40,7.80
2009,06,05,07,41,5.70
2009,06,05,07,42,10.00
2009,06,05,07,43,13.60
2009,06,05,07,44,15.90
2009,06,05,07,45,15.10
2009,06,05,07,46,15.50
2009,06,05,07,47,11.50
2009,06,05,07,48,16.30
2009,06,05,07,49,16.40
2009,06,05,07,50,14.60
2009,06,05,07,51,11.80
2009,06,05,07,52,13.50
2009,06,05,07,53,9.10
2009,06,05,07,54,13.00
2009,06,05,07,55,9.40
2009,06,05,07,56,7.60
2009,06,05,07,57,19.10
2009,06,05,07,58,6.40
2009,06,05,07,59,10.30
2009,06,05,08,00,7.90
2009,06,05,08,01,6.00
2009,06,05,08,02,9.20
2009,06,05,08,03,12.60
2009,06,05,08,04,12.30
2009,06,05,08,05,10.20
2009,06,05,08,06,7.70
2009,06,05,08,07,8.70
2009,06,05,08,08,12.40
2009,06,05,08,09,11.60
2009,06,05,08,10,15.40
2009,06,05,08,11,9.20
2009,06,05,08,12,10.80
2009,06,05,08,13,6.10
2009,06,05,08,14,9.10
2009,06,05,08,15,8.90
2009,06,05,08,16,6.40
2009,06,05,08,17,13.60
2009,06,05,08,18,8.10
2009,06,05,08,19,13.90
2009,06,05,08,20,16.10
2009,06,05,08,21,12.40
2009,06,05,08,22,15.60
2009,06,05,08,23,8.00
2009,06,05,08,24,14.10
2009,06,05,08,25,14.90
2009,06,05,08,26,9.40
2009,06,05,08,27,8.30
2009,06,05,08,28,15.20
2009,06,05,08,29,12.70
2009,06,05,08,30,20.40
2009,06,05,08,31,17.40
2009,06,05,08,32,11.70
2009,06,05,08,33,7.50
2009,06,05,08,34,11.10
2009,06,05,08,35,8.70
2009,06,05,08,36,13.30
2009,06,05,08,37,5.30
2009,06,05,08,38,7.40
2009,06,05,08,39,6.30
2009,06,05,08,40,8.60
2009,06,05,08,41,7.90
2009,06,05,08,42,4.60
2009,06,05,08,43,5.70
2009,06,05,08,44,16.10
2009,06,05,08,45,11.60
2009,06,05,08,46,9.00
2009,06,05,08,47,8.00
2009,06,05,08,48,13.80
2009,06,05,08,49,16.10
2009,06,05,08,50,17.20
2009,06,05,08,51,9.70
2009,06,05,08,52,15.80
2009,06,05,08,53,13.80
2009,06,05,08,54,19.60
2009,06,05,08,55,19.70
2009,06,05,08,56,11.80
2009,06,05,08,57,17.30
2009,06,05,08,58,15.60
2009,06,05,08,59,19.50
2009,06,05,09,00,20.30
2009,06,05,09,01,21.80
2009,06,05,09,02,19.70
2009,06,05,09,03,13.00
2009,06,05,09,04,10.30
2009,06,05,09,05,15.80
2009,06,05,09,06,13.50
2009,06,05,09,07,18.30
2009,06,05,09,08,14.60
2009,06,05,09,09,15.10
2009,06,05,09,10,12.30
2009,06,05,09,11,12.70
2009,06,05,09,12,14.50
2009,06,05,09,13,7.70
2009,06,05,09,14,12.50
2009,06,05,09,15,12.70
2009,06,05,09,16,13.30
2009,06,05,09,17,10.40
2009,06,05,09,18,6.70
2009,06,05,09,19,9.60
2009,06,05,09,20,12.80
2009,06,05,09,21,16.90
2009,06,05,09,22,8.10
2009,06,05,09,23,10.90
2009,06,05,09,24,5.70
2009,06,05,09,25,14.20
2009,06,05,09,26,17.20
2009,06,05,09,27,17.60
2009,06,05,09,28,14.00
2009,06,05,09,29,10.40
2009,06,05,09,30,10.20
2009,06,05,09,31,8.90
2009,06,05,09,32,14.60
2009,06,05,09,33,14.30
2009,06,05,09,34,14.70
2009,06,05,09,35,15.70
2009,06,05,09,36,8.50
2009,06,05,09,37,6.20
2009,06,05,09,38,8.80
2009,06,05,09,39,9.60
2009,06,05,09,40,3.00
2009,06,05,09,41,5.40
2009,06,05,09,42,6.70
2009,06,05,09,43,4.30
2009,06,05,09,44,2.50
2009,06,05,09,45,0.50
2009,06,05,09,46,4.70
2009,06,05,09,47,9.00
2009,06,05,09,48,4.40
2009,06,05,09,49,5.30
2009,06,05,09,50,7.40
2009,06,05,09,51,3.20
2009,06,05,09,52,6.60
2009,06,05,09,53,6.80
2009,06,05,09,54,9.10
2009,06,05,09,55,8.10
2009,06,05,09,56,7.30
2009,06,05,09,57,2.80
2009,06,05,09,58,4.90
2009,06,05,09,59,3.90
2009,06,05,10,00,3.50
2009,06,05,10,01,4.40
2009,06,05,10,02,5.60
2009,06,05,10,03,4.20
2009,06,05,10,04,6.60
2009,06,05,10,05,3.20
2009,06,05,10,06,0.30
2009,06,05,10,07,1.50
2009,06,05,10,08,5.20
2009,06,05,10,09,3.20
2009,06,05,10,10,1.90
2009,06,05,10,11,2.10
2009,06,05,10,12,8.20
2009,06,05,10,13,10.20
2009,06,05,10,14,4.70
2009,06,05,10,15,0.60
2009,06,05,10,16,8.50
2009,06,05,10,17,17.10
2009,06,05,10,18,14.00
2009,06,05,10,19,8.20
2009,06,05,10,20,11.60
2009,06,05,10,21,7.40
2009,06,05,10,22,8.00
2009,06,05,10,23,6.80
2009,06,05,10,24,7.90
2009,06,05,10,25,12.80
2009,06,05,10,26,6.60
2009,06,05,10,27,3.90
2009,06,05,10,28,6.10
2009,06,05,10,29,6.40
2009,06,05,10,30,4.80
2009,06,05,10,31,2.80
2009,06,05,10,32,1.30
2009,06,05,10,33,4.30
2009,06,05,10,34,6.20
2009,06,05,10,35,6.20
2009,06,05,10,36,1.90
2009,06,05,10,37,5.00
2009,06,05,10,38,6.60
2009,06,05,10,39,8.20
2009,06,05,10,40,9.70
2009,06,05,10,41,9.50
2009,06,05,10,42,9.40
2009,06,05,10,43,5.20
2009,06,05,10,44,8.70
2009,06,05,10,45,4.70
2009,06,05,10,46,6.40
2009,06,05,10,47,7.30
2009,06,05,10,48,6.30
2009,06,05,10,49,5.90
2009,06,05,10,50,6.50
2009,06,05,10,51,5.30
2009,06,05,10,52,4.00
2009,06,05,10,53,6.60
2009,06,05,10,54,4.40
2009,06,05,10,55,2.30
2009,06,05,10,56,2.20
2009,06,05,10,57,6.00
2009,06,05,10,58,4.70
2009,06,05,10,59,5.20
2009,06,05,11,00,6.10
2009,06,05,11,01,7.00
2009,06,05,11,02,3.30
2009,06,05,11,03,4.70
2009,06,05,11,04,3.50
2009,06,05,11,05,6.40
2009,06,05,11,06,5.70
2009,06,05,11,07,3.70
2009,06,05,11,08,0.00
2009,06,05,11,09,0.00
2009,06,05,11,10,0.00
2009,06,05,11,11,2.20
2009,06,05,11,12,1.30
2009,06,05,11,13,1.00
2009,06,05,11,14,1.80
2009,06,05,11,15,1.30
2009,06,05,11,16,0.00
2009,06,05,11,17,2.70
2009,06,05,11,18,6.20
2009,06,05,11,19,5.00
2009,06,05,11,20,5.10
2009,06,05,11,21,0.00
2009,06,05,11,22,4.50
2009,06,05,11,23,6.80
2009,06,05,11,24,2.90
2009,06,05,11,25,3.10
2009,06,05,11,26,1.40
2009,06,05,11,27,3.60
2009,06,05,11,28,2.00
2009,06,05,11,29,0.40
2009,06,05,11,30,0.90
2009,06,05,11,31,7.60
2009,06,05,11,32,0.60
2009,06,05,11,33,2.20
2009,06,05,11,34,0.00
2009,06,05,11,35,3.00
2009,06,05,11,36,4.60
2009,06,05,11,37,2.50
2009,06,05,11,38,4.40
2009,06,05,11,39,2.50
2009,06,05,11,40,0.60
2009,06,05,11,41,0.10
2009,06,05,11,42,0.00
2009,06,05,11,43,0.00
2009,06,05,11,44,0.00
2009,06,05,11,45,0.20
2009,06,05,11,46,0.20
2009,06,05,11,47,0.10
2009,06,05,11,48,3.20
2009,06,05,11,49,1.10
2009,06,05,11,50,0.70
2009,06,05,11,51,1.90
2009,06,05,11,52,0.40
2009,06,05,11,53,4.10
2009,06,05,11,54,5.10
2009,06,05,11,55,3.80
2009,06,05,11,56,9.00
2009,06,05,11,57,5.20
2009,06,05,11,58,3.10
2009,06,05,11,59,4.70
2009,06,05,12,00,8.20
2009,06,05,12,01,7.10
2009,06,05,12,02,6.30
2009,06,05,12,03,5.50
2009,06,05,12,04,9.50
2009,06,05,12,05,10.90
2009,06,05,12,06,9.00
2009,06,05,12,07,8.80
2009,06,05,12,08,7.70
2009,06,05,12,09,5.90
2009,06,05,12,10,4.00
2009,06,05,12,11,5.00
2009,06,05,12,12,4.50
2009,06,05,12,13,10.40
2009,06,05,12,14,8.00
2009,06,05,12,15,11.20
2009,06,05,12,16,11.30
2009,06,05,12,17,11.50
2009,06,05,12,18,11.40
2009,06,05,12,19,10.40
2009,06,05,12,20,11.10
2009,06,05,12,21,7.40
2009,06,05,12,22,7.60
2009,06,05,12,23,9.00
2009,06,05,12,24,8.30
2009,06,05,12,25,7.60
2009,06,05,12,26,9.70
2009,06,05,12,27,10.90
2009,06,05,12,28,9.70
2009,06,05,12,29,8.00
2009,06,05,12,30,9.30
2009,06,05,12,31,11.50
2009,06,05,12,32,11.00
2009,06,05,12,33,9.80
2009,06,05,12,34,8.60
2009,06,05,12,35,7.90
2009,06,05,12,36,5.00
2009,06,05,12,37,13.50
2009,06,05,12,38,11.20
2009,06,05,12,39,9.10
2009,06,05,12,40,10.70
2009,06,05,12,41,11.50
2009,06,05,12,42,11.60
2009,06,05,12,43,14.30
2009,06,05,12,44,13.10
2009,06,05,12,45,7.60
2009,06,05,12,46,8.80
2009,06,05,12,47,13.20
2009,06,05,12,48,14.40
2009,06,05,12,49,13.00
2009,06,05,12,50,15.00
2009,06,05,12,51,13.90
2009,06,05,12,52,11.80
2009,06,05,12,53,6.60
2009,06,05,12,54,9.80
2009,06,05,12,55,11.10
2009,06,05,12,56,16.70
2009,06,05,12,57,13.70
2009,06,05,12,58,11.10
2009,06,05,12,59,10.20
2009,06,05,13,00,14.20
2009,06,05,13,01,14.20
2009,06,05,13,02,14.20
2009,06,05,13,03,14.50
2009,06,05,13,04,15.50
2009,06,05,13,05,9.90
2009,06,05,13,06,8.30
2009,06,05,13,07,8.30
2009,06,05,13,08,9.70
2009,06,05,13,09,10.10
2009,06,05,13,10,8.30
2009,06,05,13,11,6.20
2009,06,05,13,12,9.40
2009,06,05,13,13,7.60
2009,06,05,13,14,8.10
2009,06,05,13,15,13.80
2009,06,05,13,16,7.80
2009,06,05,13,17,10.60
2009,06,05,13,18,13.30
2009,06,05,13,19,12.10
2009,06,05,13,20,12.60
2009,06,05,13,21,15.70
2009,06,05,13,22,7.00
2009,06,05,13,23,10.60
2009,06,05,13,24,13.30
2009,06,05,13,25,9.80
2009,06,05,13,26,7.80
2009,06,05,13,27,10.30
2009,06,05,13,28,12.20
2009,06,05,13,29,10.20
2009,06,05,13,30,13.90
2009,06,05,13,31,16.00
2009,06,05,13,32,12.00
2009,06,05,13,33,10.20
2009,06,05,13,34,6.00
2009,06,05,13,35,10.90
2009,06,05,13,36,6.90
2009,06,05,13,37,8.90
2009,06,05,13,38,9.30
2009,06,05,13,39,9.70
2009,06,05,13,40,13.50
2009,06,05,13,41,11.80
2009,06,05,13,42,7.70
2009,06,05,13,43,7.40
2009,06,05,13,44,8.80
2009,06,05,13,45,7.70
2009,06,05,13,46,7.30
2009,06,05,13,47,8.50
2009,06,05,13,48,14.40
2009,06,05,13,49,14.20
2009,06,05,13,50,13.20
2009,06,05,13,51,6.40
2009,06,05,13,52,8.60
2009,06,05,13,53,10.40
2009,06,05,13,54,9.70
2009,06,05,13,55,10.90
2009,06,05,13,56,11.40
2009,06,05,13,57,10.70
2009,06,05,13,58,9.70
2009,06,05,13,59,9.60
2009,06,05,14,00,12.20
2009,06,05,14,01,12.50
2009,06,05,14,02,9.70
2009,06,05,14,03,12.80
2009,06,05,14,04,12.60
2009,06,05,14,05,10.70
2009,06,05,14,06,10.40
2009,06,05,14,07,11.40
2009,06,05,14,08,7.40
2009,06,05,14,09,11.00
2009,06,05,14,10,8.50
2009,06,05,14,11,5.00
2009,06,05,14,12,6.50
2009,06,05,14,13,8.80
2009,06,05,14,14,6.60
2009,06,05,14,15,10.00
2009,06,05,14,16,9.60
2009,06,05,14,17,7.30
2009,06,05,14,18,5.60
2009,06,05,14,19,6.50
2009,06,05,14,20,7.40
2009,06,05,14,21,6.90
2009,06,05,14,22,9.70
2009,06,05,14,23,11.20
2009,06,05,14,24,12.60
2009,06,05,14,25,11.50
2009,06,05,14,26,8.20
2009,06,05,14,27,9.90
2009,06,05,14,28,13.90
2009,06,05,14,29,7.80
2009,06,05,14,30,10.00
2009,06,05,14,31,8.00
2009,06,05,14,32,9.30
2009,06,05,14,33,9.10
2009,06,05,14,34,9.50
2009,06,05,14,35,11.40
2009,06,05,14,36,10.40
2009,06,05,14,37,8.50
2009,06,05,14,38,7.30
2009,06,05,14,39,8.10
2009,06,05,14,40,9.70
2009,06,05,14,41,6.00
2009,06,05,14,42,7.80
2009,06,05,14,43,10.80
2009,06,05,14,44,8.70
2009,06,05,14,45,8.30
2009,06,05,14,46,12.20
2009,06,05,14,47,8.10
2009,06,05,14,48,14.40
2009,06,05,14,49,10.30
2009,06,05,14,50,13.70
2009,06,05,14,51,10.00
2009,06,05,14,52,11.80
2009,06,05,14,53,15.00
2009,06,05,14,54,8.90
2009,06,05,14,55,9.90
2009,06,05,14,56,12.00
2009,06,05,14,57,13.40
2009,06,05,14,58,13.60
2009,06,05,14,59,11.10
2009,06,05,15,00,7.20
2009,06,05,15,01,12.50
2009,06,05,15,02,14.60
2009,06,05,15,03,12.00
2009,06,05,15,04,11.20
2009,06,05,15,05,9.40
2009,06,05,15,06,14.90
2009,06,05,15,07,10.80
2009,06,05,15,08,10.60
2009,06,05,15,09,6.80
2009,06,05,15,10,8.10
2009,06,05,15,11,5.20
2009,06,05,15,12,8.60
2009,06,05,15,13,9.00
2009,06,05,15,14,5.10
2009,06,05,15,15,10.80
2009,06,05,15,16,9.80
2009,06,05,15,17,9.10
2009,06,05,15,18,8.70
2009,06,05,15,19,12.30
2009,06,05,15,20,9.20
2009,06,05,15,21,10.20
2009,06,05,15,22,9.80
2009,06,05,15,23,7.90
2009,06,05,15,24,11.00
2009,06,05,15,25,8.70
2009,06,05,15,26,10.50
2009,06,05,15,27,8.50
2009,06,05,15,28,11.00
2009,06,05,15,29,13.80
2009,06,05,15,30,7.00
2009,06,05,15,31,4.60
2009,06,05,15,32,9.50
2009,06,05,15,33,10.40
2009,06,05,15,34,9.10
2009,06,05,15,35,9.60
2009,06,05,15,36,8.00
2009,06,05,15,37,9.00
2009,06,05,15,38,10.00
2009,06,05,15,39,5.60
2009,06,05,15,40,7.70
2009,06,05,15,41,7.80
2009,06,05,15,42,9.40
2009,06,05,15,43,5.30
2009,06,05,15,44,4.80
2009,06,05,15,45,7.60
2009,06,05,15,46,7.60
2009,06,05,15,47,9.50
2009,06,05,15,48,9.00
2009,06,05,15,49,6.80
2009,06,05,15,50,5.50
2009,06,05,15,51,8.00
2009,06,05,15,52,7.30
2009,06,05,15,53,5.90
2009,06,05,15,54,4.80
2009,06,05,15,55,1.50
2009,06,05,15,56,1.40
2009,06,05,15,57,3.40
2009,06,05,15,58,8.10
2009,06,05,15,59,6.00
2009,06,05,16,00,9.70
2009,06,05,16,01,8.60
2009,06,05,16,02,9.50
2009,06,05,16,03,8.30
2009,06,05,16,04,11.30
2009,06,05,16,05,9.50
2009,06,05,16,06,8.50
2009,06,05,16,07,6.20
2009,06,05,16,08,6.10
2009,06,05,16,09,5.10
2009,06,05,16,10,8.40
2009,06,05,16,11,6.30
2009,06,05,16,12,6.50
2009,06,05,16,13,2.20
2009,06,05,16,14,7.40
2009,06,05,16,15,8.20
2009,06,05,16,16,8.80
2009,06,05,16,17,7.30
2009,06,05,16,18,7.30
2009,06,05,16,19,8.00
2009,06,05,16,20,10.20
2009,06,05,16,21,6.10
2009,06,05,16,22,8.10
2009,06,05,16,23,12.30
2009,06,05,16,24,11.30
2009,06,05,16,25,9.00
2009,06,05,16,26,9.10
2009,06,05,16,27,10.00
2009,06,05,16,28,8.50
2009,06,05,16,29,9.10
2009,06,05,16,30,7.90
2009,06,05,16,31,9.60
2009,06,05,16,32,10.20
2009,06,05,16,33,10.60
2009,06,05,16,34,6.60
2009,06,05,16,35,6.00
2009,06,05,16,36,11.50
2009,06,05,16,37,8.10
2009,06,05,16,38,7.20
2009,06,05,16,39,8.40
2009,06,05,16,40,7.30
2009,06,05,16,41,8.30
2009,06,05,16,42,8.00
2009,06,05,16,43,2.70
2009,06,05,16,44,8.00
2009,06,05,16,45,8.30
2009,06,05,16,46,7.90
2009,06,05,16,47,5.20
2009,06,05,16,48,6.80
2009,06,05,16,49,6.30
2009,06,05,16,50,7.30
2009,06,05,16,51,10.00
2009,06,05,16,52,9.50
2009,06,05,16,53,10.10
2009,06,05,16,54,6.90
2009,06,05,16,55,8.10
2009,06,05,16,56,6.20
2009,06,05,16,57,6.40
2009,06,05,16,58,8.10
2009,06,05,16,59,6.70
2009,06,05,17,00,9.00
2009,06,05,17,01,6.80
2009,06,05,17,02,9.00
2009,06,05,17,03,5.40
2009,06,05,17,04,4.90
2009,06,05,17,05,6.00
2009,06,05,17,06,6.30
2009,06,05,17,07,6.90
2009,06,05,17,08,8.90
2009,06,05,17,09,8.30
2009,06,05,17,10,7.70
2009,06,05,17,11,6.10
2009,06,05,17,12,7.90
2009,06,05,17,13,5.30
2009,06,05,17,14,9.30
2009,06,05,17,15,6.00
2009,06,05,17,16,8.20
2009,06,05,17,17,2.30
2009,06,05,17,18,5.80
2009,06,05,17,19,4.80
2009,06,05,17,20,2.90
2009,06,05,17,21,5.90
2009,06,05,17,22,2.30
2009,06,05,17,23,0.70
2009,06,05,17,24,4.00
2009,06,05,17,25,3.00
2009,06,05,17,26,4.40
2009,06,05,17,27,6.60
2009,06,05,17,28,6.00
2009,06,05,17,29,5.90
2009,06,05,17,30,4.30
2009,06,05,17,31,4.80
2009,06,05,17,32,1.00
2009,06,05,17,33,6.30
2009,06,05,17,34,5.80
2009,06,05,17,35,6.40
2009,06,05,17,36,6.60
2009,06,05,17,37,6.40
2009,06,05,17,38,6.00
2009,06,05,17,39,5.60
2009,06,05,17,40,6.20
2009,06,05,17,41,7.10
2009,06,05,17,42,6.00
2009,06,05,17,43,5.30
2009,06,05,17,44,6.20
2009,06,05,17,45,6.10
2009,06,05,17,46,5.40
2009,06,05,17,47,6.70
2009,06,05,17,48,7.60
2009,06,05,17,49,1.80